Time,TemperatureF,DewpointF,PressureIn,WindDirection,WindDirectionDegrees,WindSpeedMPH,WindSpeedGustMPH,Humidity,HourlyPrecipIn,Conditions,Clouds,dailyrainin,SolarRadiationWatts/m^2,SoftwareType,DateUTC
2013-02-03 00:00:00,33.3,31.5,30.18,NW,319,1.0,1.0,93,0.00,,,0.00,0,Wunderground v.1.15,2013-02-03 05:00:00,
2013-02-03 00:05:00,33.7,31.9,30.18,NW,319,1.0,1.0,93,0.00,,,0.00,0,Wunderground v.1.15,2013-02-03 05:05:00,
2013-02-03 00:15:00,34.1,32.0,30.17,NW,319,0.0,1.0,92,0.00,,,0.00,0,Wunderground v.1.15,2013-02-03 05:15:00,
2013-02-03 00:20:00,34.1,31.7,30.18,NW,319,0.0,0.0,91,0.00,,,0.00,0,Wunderground v.1.15,2013-02-03 05:20:00,
2013-02-03 00:25:00,34.3,31.7,30.18,NW,319,1.0,1.0,90,0.00,,,0.00,0,Wunderground v.1.15,2013-02-03 05:25:00,
2013-02-03 00:30:00,34.3,31.4,30.17,NW,319,0.0,0.0,89,0.00,,,0.00,0,Wunderground v.1.15,2013-02-03 05:30:00,
2013-02-03 00:35:00,34.4,31.5,30.17,NW,319,0.0,0.0,89,0.00,,,0.00,0,Wunderground v.1.15,2013-02-03 05:35:00,
2013-02-03 00:40:00,34.3,31.1,30.17,NW,319,0.0,0.0,88,0.00,,,0.00,0,Wunderground v.1.15,2013-02-03 05:40:00,
2013-02-03 00:45:00,34.4,31.2,30.17,NW,319,0.0,0.0,88,0.00,,,0.00,0,Wunderground v.1.15,2013-02-03 05:45:00,
2013-02-03 00:50:00,34.2,30.7,30.17,NW,319,0.0,0.0,87,0.00,,,0.00,0,Wunderground v.1.15,2013-02-03 05:50:00,
2013-02-03 00:55:00,34.2,31.0,30.16,NW,319,0.0,0.0,88,0.00,,,0.00,0,Wunderground v.1.15,2013-02-03 05:55:00,
2013-02-03 01:00:00,34.1,30.6,30.16,NW,319,0.0,0.0,87,0.00,,,0.00,0,Wunderground v.1.15,2013-02-03 06:00:00,
2013-02-03 01:05:00,34.0,30.5,30.16,NW,319,0.0,0.0,87,0.00,,,0.00,0,Wunderground v.1.15,2013-02-03 06:05:00,
2013-02-03 01:15:00,33.7,30.5,30.16,NW,319,0.0,0.0,88,0.00,,,0.00,0,Wunderground v.1.15,2013-02-03 06:15:00,
2013-02-03 01:20:00,33.4,30.5,30.16,NW,319,0.0,0.0,89,0.00,,,0.00,0,Wunderground v.1.15,2013-02-03 06:20:00,
2013-02-03 01:25:00,33.2,30.3,30.16,NW,319,0.0,0.0,89,0.00,,,0.00,0,Wunderground v.1.15,2013-02-03 06:25:00,
2013-02-03 01:30:00,33.0,30.4,30.16,NW,319,0.0,0.0,90,0.00,,,0.00,0,Wunderground v.1.15,2013-02-03 06:30:00,
2013-02-03 01:35:00,32.9,30.3,30.16,NW,319,0.0,0.0,90,0.00,,,0.00,0,Wunderground v.1.15,2013-02-03 06:35:00,
2013-02-03 01:40:00,32.9,30.3,30.15,NW,319,0.0,0.0,90,0.00,,,0.00,0,Wunderground v.1.15,2013-02-03 06:40:00,
2013-02-03 01:50:00,32.7,30.4,30.16,NW,319,0.0,0.0,91,0.00,,,0.00,0,Wunderground v.1.15,2013-02-03 06:50:00,
2013-02-03 01:55:00,32.6,30.3,30.16,NW,319,0.0,0.0,91,0.00,,,0.00,0,Wunderground v.1.15,2013-02-03 06:55:00,
2013-02-03 02:00:00,32.5,30.2,30.16,NW,319,0.0,0.0,91,0.00,,,0.00,0,Wunderground v.1.15,2013-02-03 07:00:00,
2013-02-03 02:10:00,32.5,30.2,30.15,NW,319,0.0,0.0,91,0.00,,,0.00,0,Wunderground v.1.15,2013-02-03 07:10:00,
2013-02-03 02:15:00,32.6,30.3,30.15,NW,319,0.0,0.0,91,0.00,,,0.00,0,Wunderground v.1.15,2013-02-03 07:15:00,
2013-02-03 02:20:00,32.6,30.3,30.15,NW,319,0.0,0.0,91,0.00,,,0.00,0,Wunderground v.1.15,2013-02-03 07:20:00,
2013-02-03 02:25:00,32.7,30.1,30.14,NW,319,0.0,0.0,90,0.00,,,0.00,0,Wunderground v.1.15,2013-02-03 07:25:00,
2013-02-03 02:30:00,32.8,30.2,30.14,NW,319,0.0,0.0,90,0.00,,,0.00,0,Wunderground v.1.15,2013-02-03 07:30:00,
2013-02-03 02:35:00,32.8,30.2,30.14,NW,319,0.0,0.0,90,0.00,,,0.00,0,Wunderground v.1.15,2013-02-03 07:35:00,
2013-02-03 02:45:00,32.8,29.9,30.14,NW,319,0.0,0.0,89,0.00,,,0.00,0,Wunderground v.1.15,2013-02-03 07:45:00,
2013-02-03 02:50:00,32.6,29.7,30.14,NW,319,0.0,0.0,89,0.00,,,0.00,0,Wunderground v.1.15,2013-02-03 07:50:00,
2013-02-03 02:55:00,32.5,29.3,30.14,NW,319,0.0,0.0,88,0.00,,,0.00,0,Wunderground v.1.15,2013-02-03 07:55:00,
2013-02-03 03:00:00,32.4,29.2,30.14,NW,319,0.0,0.0,88,0.00,,,0.00,0,Wunderground v.1.15,2013-02-03 08:00:00,
2013-02-03 03:05:00,32.0,28.8,30.14,NW,319,0.0,0.0,88,0.00,,,0.00,0,Wunderground v.1.15,2013-02-03 08:05:00,
2013-02-03 03:15:00,31.8,28.7,30.14,NW,319,0.0,0.0,88,0.00,,,0.00,0,Wunderground v.1.15,2013-02-03 08:15:00,
2013-02-03 03:20:00,31.8,28.7,30.14,NW,319,0.0,0.0,88,0.00,,,0.00,0,Wunderground v.1.15,2013-02-03 08:20:00,
2013-02-03 03:25:00,31.7,28.6,30.14,NW,319,0.0,0.0,88,0.00,,,0.00,0,Wunderground v.1.15,2013-02-03 08:25:00,
2013-02-03 03:30:00,31.6,28.5,30.13,NW,319,0.0,0.0,88,0.00,,,0.00,0,Wunderground v.1.15,2013-02-03 08:30:00,
2013-02-03 03:35:00,31.5,28.4,30.13,NW,319,0.0,0.0,88,0.00,,,0.00,0,Wunderground v.1.15,2013-02-03 08:35:00,
2013-02-03 03:40:00,31.5,28.1,30.13,NW,319,0.0,0.0,87,0.00,,,0.00,0,Wunderground v.1.15,2013-02-03 08:40:00,
2013-02-03 03:45:00,31.5,28.1,30.13,NW,319,0.0,0.0,87,0.00,,,0.00,0,Wunderground v.1.15,2013-02-03 08:45:00,
2013-02-03 03:55:00,31.1,28.0,30.13,NW,319,0.0,0.0,88,0.00,,,0.00,0,Wunderground v.1.15,2013-02-03 08:55:00,
2013-02-03 04:00:00,31.0,28.1,30.13,NW,319,0.0,0.0,89,0.00,,,0.00,0,Wunderground v.1.15,2013-02-03 09:00:00,
2013-02-03 04:05:00,31.0,28.1,30.12,NW,319,0.0,0.0,89,0.00,,,0.00,0,Wunderground v.1.15,2013-02-03 09:05:00,
2013-02-03 04:15:00,30.9,28.3,30.11,NW,319,0.0,0.0,90,0.00,,,0.00,0,Wunderground v.1.15,2013-02-03 09:15:00,
2013-02-03 04:20:00,31.0,28.1,30.11,NW,319,0.0,0.0,89,0.00,,,0.00,0,Wunderground v.1.15,2013-02-03 09:20:00,
2013-02-03 04:30:00,30.8,28.2,30.11,NW,319,0.0,0.0,90,0.00,,,0.00,0,Wunderground v.1.15,2013-02-03 09:30:00,
2013-02-03 04:35:00,30.7,28.1,30.11,NW,319,0.0,0.0,90,0.00,,,0.00,0,Wunderground v.1.15,2013-02-03 09:35:00,
2013-02-03 04:40:00,30.7,28.1,30.11,NW,319,0.0,0.0,90,0.00,,,0.00,0,Wunderground v.1.15,2013-02-03 09:40:00,
2013-02-03 04:45:00,30.8,28.5,30.11,NW,319,0.0,0.0,91,0.00,,,0.00,0,Wunderground v.1.15,2013-02-03 09:45:00,
2013-02-03 04:50:00,31.0,28.7,30.11,NW,319,0.0,0.0,91,0.00,,,0.00,0,Wunderground v.1.15,2013-02-03 09:50:00,
2013-02-03 04:55:00,30.9,28.6,30.11,NW,319,0.0,0.0,91,0.00,,,0.00,0,Wunderground v.1.15,2013-02-03 09:55:00,
2013-02-03 05:05:00,31.0,28.7,30.11,SW,222,0.0,0.0,91,0.00,,,0.00,0,Wunderground v.1.15,2013-02-03 10:05:00,
2013-02-03 05:15:00,31.0,28.7,30.11,SW,222,0.0,0.0,91,0.00,,,0.00,0,Wunderground v.1.15,2013-02-03 10:15:00,
2013-02-03 05:20:00,31.0,28.7,30.11,SW,222,0.0,0.0,91,0.00,,,0.00,0,Wunderground v.1.15,2013-02-03 10:20:00,
2013-02-03 05:25:00,31.1,28.8,30.10,SW,222,0.0,0.0,91,0.00,,,0.00,0,Wunderground v.1.15,2013-02-03 10:25:00,
2013-02-03 05:30:00,31.2,28.9,30.10,SW,222,0.0,0.0,91,0.00,,,0.00,0,Wunderground v.1.15,2013-02-03 10:30:00,
2013-02-03 05:40:00,31.1,28.8,30.10,SW,229,0.0,0.0,91,0.00,,,0.00,0,Wunderground v.1.15,2013-02-03 10:40:00,
2013-02-03 05:45:00,31.0,28.7,30.10,SW,231,0.0,2.0,91,0.00,,,0.00,0,Wunderground v.1.15,2013-02-03 10:45:00,
2013-02-03 05:50:00,31.0,28.7,30.10,SW,231,0.0,0.0,91,0.00,,,0.00,0,Wunderground v.1.15,2013-02-03 10:50:00,
2013-02-03 05:55:00,30.9,28.3,30.10,SW,231,0.0,0.0,90,0.00,,,0.00,0,Wunderground v.1.15,2013-02-03 10:55:00,
2013-02-03 06:00:00,30.7,28.4,30.10,SW,231,0.0,1.0,91,0.00,,,0.00,0,Wunderground v.1.15,2013-02-03 11:00:00,
2013-02-03 06:10:00,30.7,28.4,30.09,SW,236,0.0,0.0,91,0.00,,,0.00,0,Wunderground v.1.15,2013-02-03 11:10:00,
2013-02-03 06:15:00,30.6,28.3,30.09,SW,223,1.0,3.0,91,0.00,,,0.00,0,Wunderground v.1.15,2013-02-03 11:15:00,
2013-02-03 06:20:00,30.4,28.1,30.09,SSW,211,1.0,1.0,91,0.00,,,0.00,0,Wunderground v.1.15,2013-02-03 11:20:00,
2013-02-03 06:25:00,30.1,27.8,30.08,South,173,1.0,2.0,91,0.00,,,0.00,0,Wunderground v.1.15,2013-02-03 11:25:00,
2013-02-03 06:30:00,30.0,27.7,30.08,SW,219,1.0,1.0,91,0.00,,,0.00,0,Wunderground v.1.15,2013-02-03 11:30:00,
2013-02-03 06:40:00,30.0,28.0,30.09,SSE,155,1.0,1.0,92,0.00,,,0.00,0,Wunderground v.1.15,2013-02-03 11:40:00,
2013-02-03 06:45:00,30.1,28.1,30.09,South,182,1.0,1.0,92,0.00,,,0.00,0,Wunderground v.1.15,2013-02-03 11:45:00,
2013-02-03 06:50:00,30.1,28.1,30.08,SW,228,1.0,1.0,92,0.00,,,0.00,0,Wunderground v.1.15,2013-02-03 11:50:00,
2013-02-03 06:55:00,30.1,28.1,30.08,South,190,0.0,1.0,92,0.00,,,0.00,0,Wunderground v.1.15,2013-02-03 11:55:00,
2013-02-03 07:00:00,30.1,28.1,30.08,SSW,197,0.0,0.0,92,0.00,,,0.00,0,Wunderground v.1.15,2013-02-03 12:00:00,
2013-02-03 07:10:00,29.9,27.9,30.08,WSW,242,0.0,1.0,92,0.00,,,0.00,0,Wunderground v.1.15,2013-02-03 12:10:00,
2013-02-03 07:15:00,29.8,27.8,30.07,SW,225,1.0,1.0,92,0.00,,,0.00,0,Wunderground v.1.15,2013-02-03 12:15:00,
2013-02-03 07:20:00,29.7,27.7,30.07,SSW,197,2.0,2.0,92,0.00,,,0.00,0,Wunderground v.1.15,2013-02-03 12:20:00,
2013-02-03 07:25:00,29.8,27.8,30.07,SW,223,1.0,2.0,92,0.00,,,0.00,0,Wunderground v.1.15,2013-02-03 12:25:00,
2013-02-03 07:30:00,29.8,27.8,30.07,SSW,201,1.0,1.0,92,0.00,,,0.00,0,Wunderground v.1.15,2013-02-03 12:30:00,
2013-02-03 07:35:00,30.0,28.0,30.07,SSW,193,1.0,2.0,92,0.00,,,0.00,0,Wunderground v.1.15,2013-02-03 12:35:00,
2013-02-03 07:45:00,30.3,28.5,30.08,SSW,197,1.0,2.0,93,0.00,,,0.00,0,Wunderground v.1.15,2013-02-03 12:45:00,
2013-02-03 07:50:00,30.5,28.7,30.08,SW,215,1.0,1.0,93,0.00,,,0.00,0,Wunderground v.1.15,2013-02-03 12:50:00,
2013-02-03 07:55:00,30.6,28.8,30.07,South,185,0.0,1.0,93,0.00,,,0.00,0,Wunderground v.1.15,2013-02-03 12:55:00,
2013-02-03 08:00:00,30.7,28.9,30.07,SW,214,0.0,0.0,93,0.00,,,0.00,0,Wunderground v.1.15,2013-02-03 13:00:00,
2013-02-03 08:05:00,30.8,29.0,30.07,SW,223,0.0,0.0,93,0.00,,,0.00,0,Wunderground v.1.15,2013-02-03 13:05:00,
2013-02-03 08:15:00,31.0,29.2,30.08,SSW,199,0.0,0.0,93,0.00,,,0.00,0,Wunderground v.1.15,2013-02-03 13:15:00,
2013-02-03 08:20:00,31.0,29.2,30.07,SSW,210,0.0,0.0,93,0.00,,,0.00,7,Wunderground v.1.15,2013-02-03 13:20:00,
2013-02-03 08:25:00,31.2,29.4,30.07,South,182,0.0,0.0,93,0.00,,,0.00,5,Wunderground v.1.15,2013-02-03 13:25:00,
2013-02-03 08:30:00,31.3,29.5,30.07,SSW,202,0.0,0.0,93,0.00,,,0.00,11,Wunderground v.1.15,2013-02-03 13:30:00,
2013-02-03 08:35:00,31.5,29.7,30.07,SW,224,0.0,0.0,93,0.00,,,0.00,18,Wunderground v.1.15,2013-02-03 13:35:00,
2013-02-03 08:40:00,31.6,29.8,30.07,SSW,197,0.0,0.0,93,0.00,,,0.00,18,Wunderground v.1.15,2013-02-03 13:40:00,
2013-02-03 08:50:00,31.8,29.7,30.07,SW,219,0.0,3.0,92,0.00,,,0.00,18,Wunderground v.1.15,2013-02-03 13:50:00,
2013-02-03 08:55:00,31.9,29.8,30.07,SSW,198,1.0,3.0,92,0.00,,,0.00,18,Wunderground v.1.15,2013-02-03 13:55:00,
2013-02-03 09:00:00,31.9,29.8,30.07,SSE,162,2.0,3.0,92,0.00,,,0.00,30,Wunderground v.1.15,2013-02-03 14:00:00,
2013-02-03 09:05:00,32.0,29.9,30.07,South,183,2.0,3.0,92,0.00,,,0.00,67,Wunderground v.1.15,2013-02-03 14:05:00,
2013-02-03 09:15:00,32.3,30.2,30.07,South,187,2.0,2.0,92,0.00,,,0.00,18,Wunderground v.1.15,2013-02-03 14:15:00,
2013-02-03 09:25:00,32.3,30.0,30.07,SSW,195,2.0,3.0,91,0.00,,,0.00,30,Wunderground v.1.15,2013-02-03 14:25:00,
2013-02-03 09:30:00,32.4,30.1,30.07,SW,227,3.0,4.0,91,0.00,,,0.00,30,Wunderground v.1.15,2013-02-03 14:30:00,
2013-02-03 09:35:00,32.4,30.1,30.07,South,186,3.0,4.0,91,0.00,,,0.00,23,Wunderground v.1.15,2013-02-03 14:35:00,
2013-02-03 09:40:00,32.4,30.1,30.07,SSW,196,3.0,4.0,91,0.00,,,0.00,28,Wunderground v.1.15,2013-02-03 14:40:00,
2013-02-03 09:50:00,33.2,31.1,30.07,South,169,3.0,3.0,92,0.00,,,0.00,72,Wunderground v.1.15,2013-02-03 14:50:00,
2013-02-03 09:55:00,33.9,31.6,30.06,SSE,165,3.0,4.0,91,0.00,,,0.00,118,Wunderground v.1.15,2013-02-03 14:55:00,
2013-02-03 10:00:00,34.6,32.2,30.07,SSW,194,3.0,3.0,91,0.00,,,0.00,63,Wunderground v.1.15,2013-02-03 15:00:00,
2013-02-03 10:05:00,35.1,32.2,30.07,West,275,2.0,3.0,89,0.00,,,0.00,79,Wunderground v.1.15,2013-02-03 15:05:00,
2013-02-03 10:15:00,35.4,32.2,30.07,SSW,211,2.0,2.0,88,0.00,,,0.00,149,Wunderground v.1.15,2013-02-03 15:15:00,
2013-02-03 10:25:00,35.9,32.4,30.08,SSE,160,2.0,4.0,87,0.00,,,0.00,239,Wunderground v.1.15,2013-02-03 15:25:00,
2013-02-03 10:30:00,35.9,32.4,30.08,South,189,2.0,2.0,87,0.00,,,0.00,160,Wunderground v.1.15,2013-02-03 15:30:00,
2013-02-03 10:35:00,35.5,32.0,30.07,South,188,2.0,2.0,87,0.00,,,0.00,221,Wunderground v.1.15,2013-02-03 15:35:00,
2013-02-03 10:40:00,35.5,32.3,30.07,South,185,2.0,2.0,88,0.00,,,0.01,181,Wunderground v.1.15,2013-02-03 15:40:00,
2013-02-03 10:45:00,35.7,32.5,30.07,SSW,205,2.0,3.0,88,0.00,,,0.01,62,Wunderground v.1.15,2013-02-03 15:45:00,
2013-02-03 10:50:00,35.8,32.6,30.07,South,182,2.0,2.0,88,0.00,,,0.01,283,Wunderground v.1.15,2013-02-03 15:50:00,
2013-02-03 11:00:00,36.5,33.3,30.07,SSE,167,1.0,4.0,88,0.00,,,0.02,267,Wunderground v.1.15,2013-02-03 16:00:00,
2013-02-03 11:05:00,36.9,33.4,30.08,WSW,248,1.0,4.0,87,0.07,,,0.02,91,Wunderground v.1.15,2013-02-03 16:05:00,
2013-02-03 11:15:00,37.7,33.9,30.08,SW,228,1.0,3.0,86,0.06,,,0.03,390,Wunderground v.1.15,2013-02-03 16:15:00,
2013-02-03 11:20:00,37.9,33.8,30.08,SSW,213,2.0,4.0,85,0.05,,,0.04,253,Wunderground v.1.15,2013-02-03 16:20:00,
2013-02-03 11:30:00,38.3,34.2,30.08,SSE,157,2.0,2.0,85,0.07,,,0.05,232,Wunderground v.1.15,2013-02-03 16:30:00,
2013-02-03 11:35:00,38.7,34.6,30.08,SE,143,1.0,2.0,85,0.06,,,0.05,202,Wunderground v.1.15,2013-02-03 16:35:00,
2013-02-03 11:40:00,39.3,35.2,30.08,SE,143,0.0,0.0,85,0.05,,,0.06,127,Wunderground v.1.15,2013-02-03 16:40:00,
2013-02-03 11:45:00,39.8,35.4,30.08,SW,232,0.0,1.0,84,0.09,,,0.07,239,Wunderground v.1.15,2013-02-03 16:45:00,
2013-02-03 11:50:00,40.1,35.4,30.08,SW,235,1.0,1.0,83,0.09,,,0.07,91,Wunderground v.1.15,2013-02-03 16:50:00,
2013-02-03 11:55:00,40.3,34.6,30.08,West,263,0.0,3.0,80,0.05,,,0.07,360,Wunderground v.1.15,2013-02-03 16:55:00,
2013-02-03 12:05:00,40.9,34.6,30.08,SW,229,1.0,4.0,78,0.05,,,0.08,253,Wunderground v.1.15,2013-02-03 17:05:00,
2013-02-03 12:15:00,41.3,34.0,30.07,North,355,1.0,2.0,75,0.06,,,0.09,225,Wunderground v.1.15,2013-02-03 17:15:00,
2013-02-03 12:20:00,41.6,34.6,30.07,SSW,197,0.0,0.0,76,0.04,,,0.09,580,Wunderground v.1.15,2013-02-03 17:20:00,
2013-02-03 12:30:00,42.5,34.5,30.07,NNW,336,0.0,1.0,73,0.00,,,0.10,380,Wunderground v.1.15,2013-02-03 17:30:00,
2013-02-03 12:35:00,42.3,33.6,30.07,West,276,1.0,1.0,71,0.14,,,0.11,566,Wunderground v.1.15,2013-02-03 17:35:00,
2013-02-03 12:40:00,42.1,33.0,30.06,NNW,333,2.0,2.0,70,0.08,,,0.11,508,Wunderground v.1.15,2013-02-03 17:40:00,
2013-02-03 12:50:00,42.3,32.5,30.05,NW,315,2.0,3.0,68,0.09,,,0.13,512,Wunderground v.1.15,2013-02-03 17:50:00,
2013-02-03 12:55:00,42.2,32.0,30.05,SW,230,3.0,3.0,67,0.09,,,0.13,654,Wunderground v.1.15,2013-02-03 17:55:00,
2013-02-03 13:00:00,42.4,32.2,30.05,NNW,331,3.0,6.0,67,0.17,,,0.15,455,Wunderground v.1.15,2013-02-03 18:00:00,
2013-02-03 13:05:00,42.3,32.1,30.05,NNW,327,4.0,6.0,67,0.09,,,0.15,464,Wunderground v.1.15,2013-02-03 18:05:00,
2013-02-03 13:15:00,42.7,32.5,30.05,NNW,346,3.0,4.0,67,0.13,,,0.17,207,Wunderground v.1.15,2013-02-03 18:15:00,
2013-02-03 13:20:00,42.8,32.2,30.05,NNW,346,2.0,2.0,66,0.08,,,0.17,327,Wunderground v.1.15,2013-02-03 18:20:00,
2013-02-03 13:25:00,43.1,32.5,30.04,West,281,1.0,2.0,66,0.06,,,0.18,459,Wunderground v.1.15,2013-02-03 18:25:00,
2013-02-03 13:30:00,43.4,31.6,30.04,WNW,290,2.0,2.0,63,0.15,,,0.19,169,Wunderground v.1.15,2013-02-03 18:30:00,
2013-02-03 13:35:00,43.2,31.4,30.04,NNW,327,2.0,4.0,63,0.08,,,0.19,712,Wunderground v.1.15,2013-02-03 18:35:00,
2013-02-03 13:45:00,43.6,31.8,30.04,West,281,3.0,3.0,63,0.15,,,0.21,679,Wunderground v.1.15,2013-02-03 18:45:00,
2013-02-03 13:50:00,43.8,32.8,30.04,NW,324,2.0,7.0,65,0.07,,,0.21,183,Wunderground v.1.15,2013-02-03 18:50:00,
2013-02-03 13:55:00,43.8,33.2,30.03,NW,317,3.0,7.0,66,0.05,,,0.21,615,Wunderground v.1.15,2013-02-03 18:55:00,
2013-02-03 14:00:00,43.7,31.9,30.03,NNW,330,3.0,3.0,63,0.04,,,0.22,330,Wunderground v.1.15,2013-02-03 19:00:00,
2013-02-03 14:05:00,43.6,32.6,30.03,WSW,248,2.0,6.0,65,0.07,,,0.23,181,Wunderground v.1.15,2013-02-03 19:05:00,
2013-02-03 14:15:00,43.8,32.4,30.03,NNW,327,5.0,5.0,64,0.06,,,0.23,125,Wunderground v.1.15,2013-02-03 19:15:00,
2013-02-03 14:20:00,43.4,32.0,30.03,NNW,341,5.0,6.0,64,0.04,,,0.23,90,Wunderground v.1.15,2013-02-03 19:20:00,
2013-02-03 14:25:00,43.2,32.6,30.03,NW,323,4.0,6.0,66,0.00,,,0.23,163,Wunderground v.1.15,2013-02-03 19:25:00,
2013-02-03 14:30:00,43.3,32.7,30.03,NNW,331,4.0,4.0,66,0.00,,,0.24,670,Wunderground v.1.15,2013-02-03 19:30:00,
2013-02-03 14:35:00,43.5,32.1,30.03,NW,316,4.0,4.0,64,0.00,,,0.24,116,Wunderground v.1.15,2013-02-03 19:35:00,
2013-02-03 14:45:00,43.8,31.6,30.03,NW,324,3.0,5.0,62,0.00,,,0.24,629,Wunderground v.1.15,2013-02-03 19:45:00,
2013-02-03 14:50:00,44.5,31.9,30.03,NNW,327,3.0,3.0,61,0.00,,,0.24,554,Wunderground v.1.15,2013-02-03 19:50:00,
2013-02-03 14:55:00,45.1,31.2,30.03,NW,325,3.0,3.0,58,0.00,,,0.24,563,Wunderground v.1.15,2013-02-03 19:55:00,
2013-02-03 15:00:00,45.7,31.8,30.03,NW,324,4.0,4.0,58,0.00,,,0.24,550,Wunderground v.1.15,2013-02-03 20:00:00,
2013-02-03 15:05:00,46.2,30.9,30.03,NW,309,3.0,4.0,55,0.00,,,0.24,508,Wunderground v.1.15,2013-02-03 20:05:00,
2013-02-03 15:15:00,45.9,30.2,30.03,NNW,336,3.0,9.0,54,0.00,,,0.24,503,Wunderground v.1.15,2013-02-03 20:15:00,
2013-02-03 15:20:00,45.9,30.2,30.03,NW,313,4.0,4.0,54,0.00,,,0.24,489,Wunderground v.1.15,2013-02-03 20:20:00,
2013-02-03 15:25:00,46.1,29.9,30.03,NNW,339,4.0,4.0,53,0.00,,,0.24,497,Wunderground v.1.15,2013-02-03 20:25:00,
2013-02-03 15:35:00,46.3,29.6,30.03,NNW,330,5.0,6.0,52,0.00,,,0.24,229,Wunderground v.1.15,2013-02-03 20:35:00,
2013-02-03 15:40:00,46.1,30.4,30.03,North,349,4.0,4.0,54,0.00,,,0.24,118,Wunderground v.1.15,2013-02-03 20:40:00,
2013-02-03 15:45:00,45.7,29.5,30.03,NNW,328,3.0,4.0,53,0.00,,,0.24,79,Wunderground v.1.15,2013-02-03 20:45:00,
2013-02-03 15:50:00,45.6,29.4,30.04,North,5,4.0,6.0,53,0.00,,,0.24,42,Wunderground v.1.15,2013-02-03 20:50:00,
2013-02-03 16:00:00,45.0,29.3,30.04,NW,326,3.0,3.0,54,0.00,,,0.24,42,Wunderground v.1.15,2013-02-03 21:00:00,
2013-02-03 16:05:00,44.7,29.5,30.04,NNW,348,2.0,3.0,55,0.00,,,0.24,44,Wunderground v.1.15,2013-02-03 21:05:00,
2013-02-03 16:15:00,44.4,28.8,30.04,NNW,327,4.0,8.0,54,0.00,,,0.24,32,Wunderground v.1.15,2013-02-03 21:15:00,
2013-02-03 16:20:00,44.5,28.9,30.05,NNW,347,5.0,7.0,54,0.00,,,0.24,35,Wunderground v.1.15,2013-02-03 21:20:00,
2013-02-03 16:25:00,44.7,28.6,30.05,North,355,4.0,7.0,53,0.00,,,0.25,32,Wunderground v.1.15,2013-02-03 21:25:00,
2013-02-03 16:35:00,45.0,28.9,30.05,North,355,7.0,7.0,53,0.00,,,0.25,26,Wunderground v.1.15,2013-02-03 21:35:00,
2013-02-03 16:40:00,45.0,28.4,30.05,NNE,12,6.0,6.0,52,0.00,,,0.25,28,Wunderground v.1.15,2013-02-03 21:40:00,
2013-02-03 16:45:00,45.0,29.3,30.05,NNW,336,6.0,6.0,54,0.00,,,0.25,23,Wunderground v.1.15,2013-02-03 21:45:00,
2013-02-03 16:55:00,44.5,28.4,30.05,NNW,347,4.0,5.0,53,0.00,,,0.25,19,Wunderground v.1.15,2013-02-03 21:55:00,
2013-02-03 17:00:00,44.4,28.8,30.05,NW,311,5.0,5.0,54,0.00,,,0.25,21,Wunderground v.1.15,2013-02-03 22:00:00,
2013-02-03 17:05:00,44.4,28.8,30.05,North,349,5.0,5.0,54,0.00,,,0.25,18,Wunderground v.1.15,2013-02-03 22:05:00,
2013-02-03 17:15:00,44.0,28.9,30.05,NNW,334,2.0,3.0,55,0.00,,,0.25,16,Wunderground v.1.15,2013-02-03 22:15:00,
2013-02-03 17:20:00,43.9,27.9,30.05,NNW,339,3.0,4.0,53,0.00,,,0.25,14,Wunderground v.1.15,2013-02-03 22:20:00,
2013-02-03 17:30:00,44.0,28.4,30.05,NNW,348,3.0,3.0,54,0.00,,,0.25,11,Wunderground v.1.15,2013-02-03 22:30:00,
2013-02-03 17:35:00,43.8,28.2,30.05,NNW,333,1.0,3.0,54,0.00,,,0.25,11,Wunderground v.1.15,2013-02-03 22:35:00,
2013-02-03 17:40:00,43.6,28.0,30.05,NW,321,2.0,5.0,54,0.00,,,0.25,9,Wunderground v.1.15,2013-02-03 22:40:00,
2013-02-03 17:45:00,43.5,28.8,30.06,NNW,342,3.0,5.0,56,0.00,,,0.25,9,Wunderground v.1.15,2013-02-03 22:45:00,
2013-02-03 17:50:00,43.3,28.2,30.06,NNW,342,3.0,5.0,55,0.00,,,0.25,7,Wunderground v.1.15,2013-02-03 22:50:00,
2013-02-03 18:00:00,43.1,28.0,30.06,NW,323,4.0,7.0,55,0.00,,,0.25,5,Wunderground v.1.15,2013-02-03 23:00:00,
2013-02-03 18:05:00,42.9,28.3,30.06,North,9,5.0,7.0,56,0.00,,,0.25,0,Wunderground v.1.15,2013-02-03 23:05:00,
2013-02-03 18:15:00,42.6,28.0,30.06,NNW,331,4.0,5.0,56,0.00,,,0.25,0,Wunderground v.1.15,2013-02-03 23:15:00,
2013-02-03 18:25:00,42.0,28.3,30.07,North,355,3.0,4.0,58,0.00,,,0.25,0,Wunderground v.1.15,2013-02-03 23:25:00,
2013-02-03 18:30:00,41.7,28.0,30.07,NNW,337,2.0,3.0,58,0.00,,,0.25,0,Wunderground v.1.15,2013-02-03 23:30:00,
2013-02-03 18:35:00,41.5,27.8,30.07,NNW,337,2.0,3.0,58,0.00,,,0.25,0,Wunderground v.1.15,2013-02-03 23:35:00,
2013-02-03 18:40:00,41.3,28.0,30.08,NNW,347,1.0,1.0,59,0.00,,,0.25,0,Wunderground v.1.15,2013-02-03 23:40:00,
2013-02-03 18:45:00,41.0,27.8,30.08,NNW,347,1.0,3.0,59,0.00,,,0.25,0,Wunderground v.1.15,2013-02-03 23:45:00,
2013-02-03 18:50:00,41.0,28.2,30.09,North,355,1.0,3.0,60,0.00,,,0.25,0,Wunderground v.1.15,2013-02-03 23:50:00,
2013-02-03 19:00:00,40.8,28.0,30.09,North,5,3.0,3.0,60,0.00,,,0.25,0,Wunderground v.1.15,2013-02-04 00:00:00,
2013-02-03 19:05:00,40.5,28.1,30.09,North,360,3.0,5.0,61,0.00,,,0.25,0,Wunderground v.1.15,2013-02-04 00:05:00,
2013-02-03 19:15:00,40.1,28.1,30.11,NNW,346,5.0,5.0,62,0.00,,,0.25,0,Wunderground v.1.15,2013-02-04 00:15:00,
2013-02-03 19:20:00,40.1,28.1,30.11,North,9,5.0,5.0,62,0.00,,,0.25,0,Wunderground v.1.15,2013-02-04 00:20:00,
2013-02-03 19:30:00,39.5,27.9,30.11,North,355,3.0,3.0,63,0.00,,,0.25,0,Wunderground v.1.15,2013-02-04 00:30:00,
2013-02-03 19:35:00,39.3,28.1,30.11,NNW,340,3.0,4.0,64,0.00,,,0.25,0,Wunderground v.1.15,2013-02-04 00:35:00,
2013-02-03 19:40:00,39.0,27.8,30.11,North,355,4.0,4.0,64,0.00,,,0.25,0,Wunderground v.1.15,2013-02-04 00:40:00,
2013-02-03 19:45:00,38.9,27.8,30.12,NNW,342,4.0,5.0,64,0.00,,,0.25,0,Wunderground v.1.15,2013-02-04 00:45:00,
2013-02-03 19:50:00,38.7,27.9,30.12,North,355,3.0,4.0,65,0.00,,,0.25,0,Wunderground v.1.15,2013-02-04 00:50:00,
2013-02-03 19:55:00,38.4,28.0,30.13,North,355,2.0,4.0,66,0.00,,,0.25,0,Wunderground v.1.15,2013-02-04 00:55:00,
2013-02-03 20:05:00,37.7,27.7,30.13,North,355,0.0,1.0,67,0.00,,,0.25,0,Wunderground v.1.15,2013-02-04 01:05:00,
2013-02-03 20:15:00,37.1,27.5,30.13,North,355,1.0,2.0,68,0.00,,,0.25,0,Wunderground v.1.15,2013-02-04 01:15:00,
2013-02-03 20:20:00,36.8,27.2,30.13,North,355,1.0,2.0,68,0.00,,,0.25,0,Wunderground v.1.15,2013-02-04 01:20:00,
2013-02-03 20:30:00,36.4,27.2,30.14,North,360,0.0,0.0,69,0.00,,,0.25,0,Wunderground v.1.15,2013-02-04 01:30:00,
2013-02-03 20:40:00,36.0,27.5,30.13,North,360,0.0,0.0,71,0.00,,,0.25,0,Wunderground v.1.15,2013-02-04 01:40:00,
2013-02-03 20:45:00,35.7,26.9,30.13,North,349,1.0,2.0,70,0.00,,,0.25,0,Wunderground v.1.15,2013-02-04 01:45:00,
2013-02-03 20:50:00,35.3,26.8,30.13,North,350,1.0,3.0,71,0.00,,,0.25,0,Wunderground v.1.15,2013-02-04 01:50:00,
2013-02-03 20:55:00,35.2,27.1,30.12,North,350,1.0,3.0,72,0.00,,,0.25,0,Wunderground v.1.15,2013-02-04 01:55:00,
2013-02-03 21:00:00,35.1,26.6,30.12,North,350,1.0,1.0,71,0.00,,,0.25,0,Wunderground v.1.15,2013-02-04 02:00:00,
2013-02-03 21:05:00,35.1,26.6,30.13,North,350,0.0,1.0,71,0.00,,,0.25,0,Wunderground v.1.15,2013-02-04 02:05:00,
2013-02-03 21:15:00,34.6,26.2,30.13,North,350,0.0,0.0,71,0.00,,,0.25,0,Wunderground v.1.15,2013-02-04 02:15:00,
2013-02-03 21:20:00,34.4,26.3,30.13,North,350,0.0,0.0,72,0.00,,,0.25,0,Wunderground v.1.15,2013-02-04 02:20:00,
2013-02-03 21:25:00,34.4,26.6,30.13,North,350,0.0,0.0,73,0.00,,,0.25,0,Wunderground v.1.15,2013-02-04 02:25:00,
2013-02-03 21:30:00,34.0,26.3,30.13,North,350,0.0,0.0,73,0.00,,,0.25,0,Wunderground v.1.15,2013-02-04 02:30:00,
2013-02-03 21:35:00,33.5,26.1,30.14,North,350,0.0,0.0,74,0.00,,,0.25,0,Wunderground v.1.15,2013-02-04 02:35:00,
2013-02-03 21:45:00,32.7,25.6,30.14,East,96,0.0,0.0,75,0.00,,,0.25,0,Wunderground v.1.15,2013-02-04 02:45:00,
2013-02-03 21:50:00,32.4,26.0,30.14,ESE,104,1.0,1.0,77,0.00,,,0.25,0,Wunderground v.1.15,2013-02-04 02:50:00,
2013-02-03 22:00:00,32.2,25.8,30.14,ESE,104,0.0,0.0,77,0.00,,,0.25,0,Wunderground v.1.15,2013-02-04 03:00:00,
2013-02-03 22:05:00,32.1,25.7,30.14,ESE,104,0.0,0.0,77,0.00,,,0.25,0,Wunderground v.1.15,2013-02-04 03:05:00,
2013-02-03 22:15:00,31.7,25.3,30.14,ESE,104,0.0,0.0,77,0.00,,,0.25,0,Wunderground v.1.15,2013-02-04 03:15:00,
2013-02-03 22:20:00,31.5,25.4,30.14,ESE,104,0.0,0.0,78,0.00,,,0.25,0,Wunderground v.1.15,2013-02-04 03:20:00,
2013-02-03 22:25:00,31.5,25.4,30.13,ESE,104,0.0,0.0,78,0.00,,,0.25,0,Wunderground v.1.15,2013-02-04 03:25:00,
2013-02-03 22:35:00,31.2,25.1,30.13,ESE,104,0.0,0.0,78,0.00,,,0.25,0,Wunderground v.1.15,2013-02-04 03:35:00,
2013-02-03 22:40:00,31.2,25.1,30.13,ESE,104,0.0,0.0,78,0.00,,,0.25,0,Wunderground v.1.15,2013-02-04 03:40:00,
2013-02-03 22:45:00,31.3,25.2,30.14,North,355,0.0,0.0,78,0.00,,,0.25,0,Wunderground v.1.15,2013-02-04 03:45:00,
2013-02-03 22:50:00,31.5,25.4,30.14,NNW,337,0.0,0.0,78,0.00,,,0.25,0,Wunderground v.1.15,2013-02-04 03:50:00,
2013-02-03 22:55:00,31.3,25.2,30.15,NNW,337,0.0,1.0,78,0.00,,,0.25,0,Wunderground v.1.15,2013-02-04 03:55:00,
2013-02-03 23:00:00,31.1,25.3,30.15,NNW,337,0.0,0.0,79,0.00,,,0.25,0,Wunderground v.1.15,2013-02-04 04:00:00,
2013-02-03 23:10:00,30.5,24.8,30.14,NNW,337,0.0,0.0,79,0.00,,,0.25,0,Wunderground v.1.15,2013-02-04 04:10:00,
2013-02-03 23:15:00,30.5,25.1,30.14,NNW,337,0.0,0.0,80,0.00,,,0.25,0,Wunderground v.1.15,2013-02-04 04:15:00,
2013-02-03 23:20:00,30.4,25.0,30.14,NNW,342,1.0,1.0,80,0.00,,,0.25,0,Wunderground v.1.15,2013-02-04 04:20:00,
2013-02-03 23:25:00,30.5,24.8,30.14,NNW,342,1.0,1.0,79,0.00,,,0.25,0,Wunderground v.1.15,2013-02-04 04:25:00,
2013-02-03 23:30:00,30.5,24.8,30.14,NNW,346,0.0,0.0,79,0.00,,,0.25,0,Wunderground v.1.15,2013-02-04 04:30:00,
2013-02-03 23:40:00,30.5,24.8,30.14,North,350,1.0,1.0,79,0.00,,,0.25,0,Wunderground v.1.15,2013-02-04 04:40:00,
2013-02-03 23:45:00,30.5,24.8,30.14,North,350,1.0,1.0,79,0.00,,,0.25,0,Wunderground v.1.15,2013-02-04 04:45:00,
2013-02-03 23:50:00,30.4,24.7,30.14,North,350,1.0,1.0,79,0.00,,,0.25,0,Wunderground v.1.15,2013-02-04 04:50:00,
2013-02-03 23:55:00,30.3,24.6,30.14,North,350,1.0,1.0,79,0.00,,,0.25,0,Wunderground v.1.15,2013-02-04 04:55:00,